Regional Weather Roundup
Issued by NWS

Home | Current Version | Previous Version | Text Only | Print | Product List | Glossary On
Versions: 1 2 3 4 5 6 7 8 9 10 11 12 13 14 15 16 17 18 19 20 21 22 23 24 25 26
000
ASUS46 KPQR 281110
RWROR

OREGON REGIONAL WEATHER ROUNDUP
NATIONAL WEATHER SERVICE PORTLAND OR
400 AM PDT FRI JUL 28 2017

NOTE: "FAIR" INDICATES FEW OR NO CLOUDS BELOW 12,000 FEET WITH
NO SIGNIFICANT WEATHER AND/OR OBSTRUCTIONS TO VISIBILITY.

ORZ001>013-281200-
NORTHWEST OREGON


CITY           SKY/WX    TMP DP  RH WIND       PRES   REMARKS
ASTORIA        MOCLDY    51  47  86 CALM      30.12S
NEWPORT        CLEAR     48  48 100 N3        30.14S FOG
PORTLAND       CLEAR     57  51  80 NW7       30.08S
VANCOUVER WA   CLEAR     58  52  80 NW3       30.08S
SCAPPOOSE      CLEAR     56  49  77 N6        30.08S
HILLSBORO      CLEAR     51  47  86 NW5       30.08S
AURORA         CLEAR     56  48  74 N5        30.09S
MCMINNVILLE    CLEAR     54  51  90 CALM      30.09S
SALEM          CLEAR     56  50  80 N6        30.07R
CORVALLIS      CLEAR     55  50  82 W5        30.08S
EUGENE         CLEAR     55  53  93 NW3       30.07S
$$

ORZ021-028-281200-
SOUTHWEST OREGON


CITY           SKY/WX    TMP DP  RH WIND       PRES   REMARKS
NORTH BEND     CLOUDY    55  53  93 N8        30.12F
BROOKINGS      LGT RAIN  54  54 100 CALM      30.04F VSB 1
ROSEBURG       CLEAR     60  54  80 CALM      30.06S
SEXTON SUMMIT  CLEAR     54  52  93 N12       30.09F
GRANTS PASS    CLOUDY    68  55  64 NW7       30.05S
MEDFORD        CLEAR     68  55  63 CALM      30.01S
$$

ORZ014>016-041-281200-
COLUMBIA GORGE


CITY           SKY/WX    TMP DP  RH WIND       PRES   REMARKS
TROUTDALE      CLEAR     57  52  83 W3        30.08R
HOOD RIVER     CLEAR     54  45  71 CALM      30.01S
THE DALLES     CLEAR     66  54  65 NW10      29.98S
$$

ORZ029>031-041-044-049-050-061>064-502-503-505>511-281200-
EASTERN OREGON


CITY           SKY/WX    TMP DP  RH WIND       PRES   REMARKS
MADRAS         CLEAR     52  43  71 SE5       30.07F
REDMOND        CLEAR     52  41  66 S6        30.07F
BEND           CLEAR     55  48  76 SW5       30.09F
PRINEVILLE     CLEAR     50  41  71 CALM      30.08F
KLAMATH FALLS  CLEAR     54  52  93 CALM      30.10S
LAKEVIEW       CLEAR     51  45  79 NW6       30.14F
HERMISTON      CLEAR     66  48  52 CALM      29.96R
PENDLETON      CLEAR     65  44  46 SW3       29.99S
JOHN DAY       CLEAR     63  40  43 CALM      30.10S
MEACHAM        PTCLDY    47  38  71 CALM      30.10F
LA GRANDE      CLEAR     57  39  51 SE3       30.04F
BAKER CITY     CLEAR     53  46  77 SW3       30.08S
BURNS          CLEAR     56  42  59 W7        30.08S
ROME             N/A     64  39  39 S5        30.06S
ONTARIO        CLEAR     64  54  69 CALM      29.99R
$$




USA.gov is the U.S. government's official web portal to all federal, state and local government web resources and services.